Regional Weather Roundup
Issued by NWS

Home | Current Version | Previous Version | Text Only | Print | Product List | Glossary On
Versions: 1 2 3 4 5 6 7 8 9 10 11 12 13 14 15 16 17 18 19 20 21 22 23 24 25 26 27
000
ASUS44 KBMX 211210
RWRAL

ALABAMA REGIONAL WEATHER ROUNDUP
NATIONAL WEATHER SERVICE BIRMINGHAM AL
700 AM CDT FRI JUL 21 2017

NOTE: "FAIR" INDICATES FEW OR NO CLOUDS BELOW 12,000 FEET
WITH NO SIGNIFICANT WEATHER AND/OR OBSTRUCTIONS TO VISIBILITY.

THE REMARK "TC" DENOTES TEMPERATURE IN DEGREES CELSIUS.

ALZ001>011-014-016>018-020-211300-
NORTH ALABAMA

CITY           SKY/WX    TMP DP  RH WIND       PRES   REMARKS
MUSCLE SHOALS  SUNNY     77  74  90 CALM      30.08R
6HR MIN TEMP:  73; 6HR MAX TEMP:  78;

HUNTSVILLE     MOSUNNY   78  77  96 CALM      30.07R FOG
6HR MIN TEMP:  74; 6HR MAX TEMP:  79;

DECATUR        SUNNY     75  73  93 CALM      30.08R
6HR MIN TEMP:  72; 6HR MAX TEMP:  76;

HALEYVILLE     NOT AVBL
GADSDEN        SUNNY     74  74 100 CALM      30.07R FOG
6HR MIN TEMP:  72; 6HR MAX TEMP:  75;

$$

ALZ012-013-022-023-030>036-040>044-211300-
WEST CENTRAL ALABAMA

CITY           SKY/WX    TMP DP  RH WIND       PRES   REMARKS
TUSCALOOSA     SUNNY     78  78 100 CALM      30.05R FOG
6HR MIN TEMP:  76; 6HR MAX TEMP:  80;

DEMOPOLIS        N/A    N/A N/A N/A CALM      30.04R FOG
$$

ALZ015-024>026-033>036-041>044-211300-
CENTRAL ALABAMA

CITY           SKY/WX    TMP DP  RH WIND       PRES   REMARKS
BIRMINGHAM     MOSUNNY   79  75  87 CALM      30.08R
6HR MIN TEMP:  77; 6HR MAX TEMP:  81;

MONTGOMERY     MOSUNNY   78  73  84 CALM      30.05R HAZE
6HR MIN TEMP:  76; 6HR MAX TEMP:  79;

SHELBY CO ARPT SUNNY     77  76  96 CALM      30.06R
6HR MIN TEMP:  76; 6HR MAX TEMP:  78;

MAXWELL AFB    MOSUNNY   77  76  98 CALM      30.04R
6HR MIN TEMP:  75; 6HR MAX TEMP:  77;

GREENVILLE     FAIR      76  71  85 CALM      30.04R
6HR MIN TEMP:  74; 6HR MAX TEMP:  77;

SELMA          PTSUNNY   77  73  88 CALM      30.05R
PRATTVILLE     FAIR      73  73 100 CALM      30.04R
6HR MIN TEMP:  73; 6HR MAX TEMP:  74;

BESSEMER       FAIR      77  75  93 CALM      30.08R
6HR MIN TEMP:  73; 6HR MAX TEMP:  78;

TALLADEGA      FAIR      73  73  98 CALM      30.07R FOG
6HR MIN TEMP:  72; 6HR MAX TEMP:  75;

PELL CITY      FOG       75  75 100 CALM      30.07R VSB 1/4
MARION         FAIR      76  76 100 CALM      30.04R FOG
6HR MIN TEMP:  75; 6HR MAX TEMP:  77;

SYLACAUGA      FAIR      74  74 100 CALM      30.07R
6HR MIN TEMP:  73; 6HR MAX TEMP:  75;

$$

ALZ019-021-028-029-037-038-045>048-211300-
EAST CENTRAL ALABAMA

CITY           SKY/WX    TMP DP  RH WIND       PRES   REMARKS
ANNISTON       SUNNY     74  72  93 CALM      30.07R
6HR MIN TEMP:  72; 6HR MAX TEMP:  74;

ALEXANDER CITY SUNNY     73  72  96 CALM      30.06R
6HR MIN TEMP:  72; 6HR MAX TEMP:  76;

AUBURN         MOSUNNY   76  74  93 CALM      30.08R
6HR MIN TEMP:  74; 6HR MAX TEMP:  77;

$$

ALZ051>064-211300-
SOUTHWEST ALABAMA

CITY           SKY/WX    TMP DP  RH WIND       PRES   REMARKS
MOBILE         PTSUNNY   78  76  93 CALM      30.04R
6HR MIN TEMP:  77; 6HR MAX TEMP:  80;

BROOKLEY FIELD SUNNY     81  79  94 NW3       30.04R HX  90
6HR MIN TEMP:  81; 6HR MAX TEMP:  84;

EVERGREEN      MOSUNNY   76  74  93 CALM      30.05R FOG
6HR MIN TEMP:  74; 6HR MAX TEMP:  76;

$$

ALZ049-050-065>069-211300-
SOUTHEAST ALABAMA

CITY           SKY/WX    TMP DP  RH WIND       PRES   REMARKS
DOTHAN         SUNNY     77  75  93 N5        30.06R
6HR MIN TEMP:  75; 6HR MAX TEMP:  80;

OZARK          MOSUNNY   77  74  91 CALM      30.03R
6HR MIN TEMP:  74; 6HR MAX TEMP:  78;

TROY           PTSUNNY   75  74  96 CALM      30.05R
6HR MIN TEMP:  72; 6HR MAX TEMP:  75;

EUFAULA        FAIR      78  74  87 NW5       30.02R
6HR MIN TEMP:  74; 6HR MAX TEMP:  78;

$$




USA.gov is the U.S. government's official web portal to all federal, state and local government web resources and services.